Retour au catalogue

CZ-6A DEB

ActifPO
NORAD 54512·DEBRIS·🇨🇳 China

Lancé Nov 11, 2022 depuis Taiyuan Satellite Launch Center

Loading…

Prochains Passages (prochaines 24 heures)

TLE

FraisSource: Space-Track

Époque: Sep 14, 2026, 15:34 UTC

1 54512U 22151JQ  26257.64878963  .00005159  00000-0  85504-3 0  9996
2 54512  98.5848 321.5173 0087415  10.7361 349.5682 14.68195766201346

Suivez CZ-6A DEB en temps réel avec AllMySat

Download on the App Store